This demonstration page uses our WeatherBlox Daily Observations layout. Learn more.

Left ArrowRight Arrow

Hourly Observations for July 20, 2020

Temp ( °F °C ) Dew Point ( °F °C ) Humidity (%) Winds ( mph kmh ) Pressure ( in mb ) Visibility ( mi km ) Precip ( " mm )
12:15 am 00:15 Cloudy with Light Rain 70 21 70 21 100 100 W 10 17 29.97 1015 10 16 0.01 0.25
12:35 am 00:35 Cloudy 70 21 70 21 100 100 W 8 13 29.97 1015 10 16 0.01 0.25
12:55 am 00:55 Cloudy with Rain 70 21 70 21 100 100 W 8 13 29.97 1015 10 16 0.02 0.51
1:15 am 01:15 Cloudy with Light Rain 70 21 70 21 100 100 W 10 17 29.99 1016 10 16 0.01 0.25
1:35 am 01:35 Cloudy 70 21.1 70 21.1 100 100 W 15 24 30.00 1016 10 16 0.01 0.25
1:55 am 01:55 Cloudy 70 21.2 70 21.2 100 100 W 16 26 30.02 1017 10 16 0.02 0.51
2:15 am 02:15 Cloudy with Light Rain 70 21 70 21 100 100 W 15 24 30.02 1017 7 11 0.02 0.51
2:35 am 02:35 Cloudy with Rain 69 20.6 69 20.6 100 100 WNW 15 24 30.00 1016 10 16 0.06 1.52
2:55 am 02:55 Partly Cloudy with Drizzle 69 20.8 69 20.8 100 100 WNW 14 22 30.00 1016 10 16 0.06 1.52
3:15 am 03:15 Clear 69 20.5 69 20.5 100 100 WNW 13 20 30.00 1016 10 16 0.00 0.00
3:35 am 03:35 Clear 68 20.1 68 20.1 100 100 WNW 9 15 30.00 1016 10 16 0.00 0.00
3:55 am 03:55 Clear 68 20 68 20 100 100 WNW 10 17 29.99 1015 10 16 0.00 0.00
4:15 am 04:15 Clear 68 20 68 20 100 100 NW 8 13 29.98 1015 10 16 0.00 0.00
4:35 am 04:35 Clear 68 19.8 68 19.8 100 100 N 6 9 29.95 1014 10 16 0.00 0.00
4:55 am 04:55 Clear 67 19.7 67 19.7 100 100 Calm 29.95 1014 10 16 0.00 0.00
5:15 am 05:15 Clear 67 19.6 67 19.6 100 100 WSW 5 7 29.96 1014 10 16 0.00 0.00
5:35 am 05:35 Clear 67 19.2 67 19.2 100 100 ESE 3 6 29.95 1014 10 16 0.00 0.00
5:55 am 05:55 Clear 67 19.2 67 19.2 100 100 Calm 29.94 1014 10 16 0.00 0.00
6:15 am 06:15 Clear 66 19.1 66 19.1 100 100 S 3 6 29.97 1015 10 16 0.00 0.00
6:35 am 06:35 Sunny 66 19 66 19 100 100 SSE 5 7 29.97 1015 10 16 0.00 0.00
6:55 am 06:55 Sunny 66 18.9 66 18.9 100 100 S 5 7 29.98 1015 10 16 0.00 0.00
7:15 am 07:15 Sunny 67 19.2 67 19.2 100 100 S 3 6 30.00 1016 10 16 0.00 0.00
7:35 am 07:35 Sunny 67 19.5 67 19.5 100 100 SSW 3 6 30.01 1016 10 16 0.00 0.00
7:55 am 07:55 Sunny 67 19.6 67 19.6 100 100 S 5 7 30.02 1017 10 16 0.00 0.00
8:15 am 08:15 Sunny 67 19.7 67 19.7 100 100 S 6 9 30.02 1016 10 16 0.00 0.00
8:35 am 08:35 Sunny 68 19.9 68 19.9 100 100 SSW 6 9 30.04 1017 10 16 0.00 0.00
8:55 am 08:55 Sunny 68 20.2 68 20.2 100 100 S 5 7 30.03 1017 10 16 0.00 0.00
9:15 am 09:15 Partly Cloudy 69 20.7 69 20.7 100 100 SSW 8 13 30.03 1017 10 16 0.00 0.00
9:35 am 09:35 Partly Cloudy 69 20.8 69 20.8 100 100 SSW 7 11 30.03 1017 10 16 0.00 0.00
9:55 am 09:55 Sunny 69 20.8 69 20.8 100 100 SW 6 9 30.04 1017 10 16 0.00 0.00
10:15 am 10:15 Sunny 73 22.6 73 22.6 100 100 SW 7 11 30.04 1017 10 16 0.00 0.00
10:35 am 10:35 Partly Cloudy 72 22.3 72 22.3 100 100 SW 8 13 30.05 1018 10 16 0.00 0.00
10:55 am 10:55 Sunny 73 22.7 73 22.7 100 100 SW 6 9 30.05 1018 10 16 0.00 0.00
11:15 am 11:15 Sunny 75 23.9 75 23.7 99 99 WSW 6 9 30.04 1017 10 16 0.00 0.00
11:35 am 11:35 Sunny 74 23.6 73 22.9 96 96 WSW 5 7 30.03 1017 10 16 0.00 0.00
11:55 am 11:55 Sunny 75 23.7 73 22.9 95 95 SW 6 9 30.03 1017 10 16 0.00 0.00
12:15 pm 12:15 Sunny 75 23.7 74 23.1 96 96 SW 3 6 30.02 1017 10 16 0.00 0.00
12:35 pm 12:35 Sunny 76 24.2 71 21.9 87 87 Calm 30.02 1017 10 16 0.00 0.00
12:55 pm 12:55 Partly Cloudy 77 25.1 72 22.2 84 84 SE 3 6 30.02 1017 10 16 0.00 0.00
1:15 pm 13:15 Sunny 77 25 70 21.1 79 79 Calm 30.02 1017 10 16 0.00 0.00
1:35 pm 13:35 Sunny 78 25.4 68 20 72 72 NW 3 6 30.02 1017 10 16 0.00 0.00
2:00 pm 14:00 Sunny 78 25.3 70 21.3 79 79 Calm 30.02 1017 10 16 0.00 0.00
2:15 pm 14:15 Sunny 77 25.2 69 20.7 76 76 Calm 30.02 1017 10 16 0.00 0.00
2:35 pm 14:35 Sunny 76 24.5 72 22.2 87 87 NNW 6 9 30.01 1016 10 16 0.00 0.00
2:55 pm 14:55 Partly Cloudy 76 24.7 71 21.4 82 82 NW 5 7 30.01 1016 10 16 0.00 0.00
3:15 pm 15:15 Sunny 76 24.5 73 22.7 90 90 N 5 7 30.00 1016 10 16 0.00 0.00
3:35 pm 15:35 Sunny 76 24.5 73 22.7 90 90 N 3 6 30.00 1016 10 16 0.00 0.00
3:55 pm 15:55 Mostly Cloudy 76 24.3 72 22.1 88 88 N 3 6 29.99 1016 10 16 0.00 0.00
4:15 pm 16:15 Cloudy 76 24.7 72 22.2 86 86 NNW 3 6 29.99 1016 10 16 0.00 0.00
4:35 pm 16:35 Partly Cloudy 78 25.3 69 20.4 74 74 Calm 29.99 1016 10 16 0.00 0.00
4:55 pm 16:55 Sunny 78 25.7 72 22.3 82 82 N 5 7 29.99 1015 10 16 0.00 0.00
5:15 pm 17:15 Partly Cloudy 77 25 72 22.3 85 85 N 7 11 29.99 1016 10 16 0.00 0.00
5:35 pm 17:35 Mostly Cloudy 77 25 69 20.8 78 78 NNW 5 7 29.99 1016 10 16 0.00 0.00
5:50 pm 17:50 Mostly Cloudy 77 24.8 71 21.9 84 84 N 5 7 29.99 1016 10 16 0.00 0.00
6:15 pm 18:15 Partly Cloudy 77 25 70 20.9 78 78 N 3 6 29.98 1015 10 16 0.00 0.00
6:35 pm 18:35 Partly Cloudy 76 24.7 69 20.6 78 78 N 3 6 29.98 1015 10 16 0.00 0.00
6:55 pm 18:55 Sunny 78 25.8 68 19.9 70 70 Calm 29.98 1015 10 16 0.00 0.00
7:15 pm 19:15 Sunny 77 25 69 20.6 77 77 NNE 5 7 29.97 1015 10 16 0.00 0.00
7:35 pm 19:35 Sunny 77 25.1 69 20.3 75 75 NE 3 6 29.97 1015 10 16 0.00 0.00
7:55 pm 19:55 Partly Cloudy 75 23.8 73 22.6 93 93 N 3 6 29.98 1015 10 16 0.00 0.00
8:15 pm 20:15 Mostly Cloudy 75 24.1 74 23.2 95 95 NNE 3 6 29.98 1015 10 16 0.00 0.00
8:35 pm 20:35 Partly Cloudy 74 23.4 74 23.4 100 100 Calm 29.99 1015 10 16 0.00 0.00
8:55 pm 20:55 Sunny 72 22.4 72 22.4 100 100 Calm 29.99 1016 10 16 0.00 0.00
9:15 pm 21:15 Partly Cloudy 71 21.6 71 21.6 100 100 NNE 3 6 29.99 1016 10 16 0.00 0.00
9:35 pm 21:35 Mostly Cloudy 70 20.9 70 20.9 100 100 N 3 6 30.00 1016 10 16 0.00 0.00
9:55 pm 21:55 Partly Cloudy 68 20 68 20 100 100 NE 3 6 30.01 1016 10 16 0.00 0.00
10:15 pm 22:15 Clear 66 19.1 66 19.1 100 100 Calm 30.01 1016 10 16 0.00 0.00
10:35 pm 22:35 Clear 67 19.6 67 19.6 100 100 Calm 30.01 1016 10 16 0.00 0.00
10:55 pm 22:55 Clear 67 19.2 67 19.2 100 100 Calm 30.01 1016 10 16 0.00 0.00
11:15 pm 23:15 Clear 68 19.8 68 19.8 100 100 Calm 30.02 1016 10 16 0.00 0.00
11:35 pm 23:35 Clear 67 19.4 67 19.4 100 100 Calm 30.02 1017 10 16 0.00 0.00
11:55 pm 23:55 Clear 66 19.1 66 19.1 100 100 Calm 30.03 1017 10 16 0.00 0.00

Powered by AerisWeather